Casa Grande, AZ

3:52 AM MST on December 09, 2019 (GMT -0700)
Casa Grande Municipal

Weather History for KCGZ - November, 2019

Change the Weather History Date:

Friday, November 22, 2019

  Actual Average Record
Temperature  
Mean Temperature 56 °F -  
Max Temperature 63 °F 68 °F 82 °F (2002)
Min Temperature 48 °F 41 °F 37 °F (2014)
Degree Days  
Heating Degree Days 10    
Growing Degree Days 6 (Base 50)    
Moisture  
Dew Point 47 °F    
Average Humidity 76    
Maximum Humidity 100    
Minimum Humidity 52    
Precipitation  
Precipitation 0.08 in - - ()
Sea Level Pressure  
Sea Level Pressure 30.14 in    
Wind  
Wind Speed 4 mph ()    
Max Wind Speed 7 mph    
Max Gust Speed -    
Visibility 10.0 miles    
Events Rain    
Averages and records for this station are not official NWS values.
T = Trace of Precipitation, MM = Missing Value Source: Averaged Metar Reports

Daily Weather History Graph

Daily Weather History Graph

Search for Another Location

Airport or City:

Astronomy

Nov. 22, 2019 Rise Set
Actual Time 7:03 AM MST 5:22 PM MST
Civil Twilight 6:37 AM MST 5:48 PM MST
Nautical Twilight 6:07 AM MST 6:19 PM MST
Astronomical Twilight 5:37 AM MST 6:48 PM MST
Moon 2:33 AM MST (11/22) 3:08 PM MST (11/22)
Length of Visible Light 11h 11m
Length of Day
10h 18m
Waning Crescent, 19% of the Moon is Illuminated
Nov 22
Waning Crescent
Nov 26
New
Dec 3
First Quarter
Dec 11
Full
Dec 18
Last Quarter

Hourly Weather History & Observations

Time (MST) Temp. Dew Point Humidity Pressure Visibility Wind Dir Wind Speed Gust Speed Precip Events Conditions
12:56 AM 52.0 °F 48.9 °F 89% 30.10 in 10.0 mi East 5.8 mph - 0.04 in Rain Light Rain
1:56 AM 52.0 °F 50.0 °F 93% 30.11 in 10.0 mi ENE 5.8 mph - 0.04 in Rain Light Rain
2:56 AM 51.1 °F 48.9 °F 92% 30.12 in 10.0 mi NE 5.8 mph - 0.00 in   Clear
3:56 AM 50.0 °F 48.0 °F 93% 30.11 in 10.0 mi North 6.9 mph - N/A   Clear
4:56 AM 48.0 °F 46.9 °F 96% 30.12 in 10.0 mi NNE 6.9 mph - N/A   Clear
6:39 AM 48.2 °F 48.2 °F 100% 30.14 in 10.0 mi NNE 5.8 mph - N/A   Mostly Cloudy
6:56 AM 48.9 °F 46.9 °F 93% 30.15 in 10.0 mi North 4.6 mph - N/A   Overcast
7:56 AM 50.0 °F 48.0 °F 93% 30.17 in 10.0 mi Calm Calm - N/A   Mostly Cloudy
8:18 AM 53.6 °F 48.2 °F 82% 30.17 in 10.0 mi NE 3.5 mph - N/A   Overcast
8:56 AM 55.0 °F 48.9 °F 80% 30.18 in 10.0 mi NNE 4.6 mph - N/A   Partly Cloudy
9:56 AM 57.0 °F 48.9 °F 74% 30.19 in 10.0 mi NE 3.5 mph - N/A   Clear
10:56 AM 59.0 °F 46.9 °F 64% 30.18 in 10.0 mi East 4.6 mph - N/A   Clear
11:56 AM 60.1 °F 46.0 °F 60% 30.15 in 10.0 mi Variable 4.6 mph - N/A   Clear
12:56 PM 61.0 °F 46.9 °F 60% 30.13 in 10.0 mi Calm Calm - N/A   Clear
1:56 PM 62.1 °F 44.1 °F 52% 30.10 in 10.0 mi Calm Calm - N/A   Clear
2:56 PM 62.1 °F 45.0 °F 53% 30.10 in 10.0 mi Calm Calm - N/A   Clear
3:56 PM 63.0 °F 45.0 °F 52% 30.10 in 10.0 mi NNW 4.6 mph - N/A   Clear
4:56 PM 61.0 °F 45.0 °F 56% 30.11 in 10.0 mi NW 6.9 mph - N/A   Clear
5:56 PM 57.9 °F 46.9 °F 67% 30.11 in 10.0 mi NW 4.6 mph - N/A   Clear
6:56 PM 55.9 °F 46.9 °F 72% 30.12 in 10.0 mi NW 5.8 mph - N/A   Clear
7:56 PM 54.0 °F 46.0 °F 75% 30.14 in 10.0 mi WNW 5.8 mph - N/A   Clear
8:56 PM 54.0 °F 44.1 °F 69% 30.14 in 10.0 mi NNW 3.5 mph - N/A   Clear
9:56 PM 50.0 °F 45.0 °F 83% 30.15 in 10.0 mi Calm Calm - N/A   Clear
10:56 PM 50.0 °F 45.0 °F 83% 30.15 in 10.0 mi North 5.8 mph - N/A   Clear
11:56 PM 52.0 °F 44.1 °F 74% 30.16 in 10.0 mi North - - N/A   Clear